Location: Unspecified
(0.0000°N, 0.0000°E)
Time: 04:51:50
(UTC+00:00)

STARLINK-35385 - Visible Passes

Search period start: 14 February 2026 00:00
Search period end: 24 February 2026 00:00
Orbit: 474 x 476 km, 53.2° (Epoch: 10 February)

Date Brightness Start Highest point End Pass type
(mag) Time Alt. Az. Time Alt. Az. Time Alt. Az.
19 Feb 4.9 20:10:56 10° SSW 20:11:47 16° SSW 20:11:47 16° SSW visible
20 Feb 2.9 19:40:55 10° SSW 19:43:45 46° S 19:43:45 46° S visible
21 Feb 2.6 19:10:54 10° SSW 19:14:26 46° ESE 19:15:47 30° ENE visible
22 Feb 3.0 18:40:52 10° S 18:44:15 35° SE 18:47:37 10° ENE visible
23 Feb 5.3 19:50:28 10° WNW 19:51:39 11° NW 19:52:50 10° NW visible
